Location: Gerlach
(40.6516°N, 119.3568°W)
Time: 00:59:29
(UTC-08:00)

XW-2F - Visible Passes

Search period start: 04 March 2024 00:00
Search period end: 14 March 2024 01:00
Orbit: 327 x 332 km, 97.4° (Epoch: 03 March)

Date Brightness Start Highest point End Pass type
(mag) Time Alt. Az. Time Alt. Az. Time Alt. Az.
04 Mar ? 18:47:51 10° SSE 18:50:30 87° WSW 18:53:11 10° NNW visible
05 Mar ? 19:05:55 10° S 19:08:25 38° W 19:10:56 10° NNW visible
06 Mar ? 19:23:45 10° SSW 19:25:48 20° W 19:27:51 10° NW visible
07 Mar ? 19:41:45 10° WSW 19:42:39 11° W 19:43:34 10° WNW visible
08 Mar ? 18:26:17 10° SE 18:28:38 32° ENE 18:31:00 10° N visible
09 Mar ? 18:41:44 10° SSE 18:44:16 63° ENE 18:46:51 10° N visible
10 Mar ? 19:56:51 10° S 19:59:23 63° W 20:01:57 10° NNW visible
11 Mar ? 20:11:38 10° SSW 20:13:58 32° W 20:16:20 10° NNW visible
12 Mar ? 20:26:05 10° SSW 20:28:01 19° W 20:29:58 10° NW visible
13 Mar ? 20:40:25 10° WSW 20:41:32 12° W 20:42:39 10° WNW visible
